Wind_Speed
7 7 6 5 5 6 4 2 3 4 5 7 8 8 7 8 9 10 11 7 5 8 10 10 8 7 4 2 11 8 10 14 13 13 16 15 9 13 17 11 11 14 15 14 11 11 12 11 10 8 8 9 7 7 11 10 7 8 3 2 4 3 5 6 7 7 4 2 3 2 3 5 3 4 5 8 10 16 18 21 22 23 25 27 28 28 28 27
8 8 7 5 5 6 5 5 3 4 4 5 7 8 8 7 8 8 9 6 5 7 9 8 7 9 7 5 11 12 12 14 14 16 16 12 10 13 14 12 12 13 14 13 12 12 12 11 9 8 9 8 5 6 10 8 8 6 2 2 5 5 5 6 7 7 5 3 4 2 2 5 5 5 4 5 10 12 12 16 19 22 27 27 28 29 30 30
10 10 9 6 5 6 7 7 4 4 4 4 6 7 6 5 6 6 6 6 6 7 9 7 8 12 9 8 12 14 15 14 15 18 14 10 11 11 12 13 13 13 14 13 12 13 12 9 8 8 9 8 5 6 9 6 6 4 2 2 6 5 5 7 8 8 7 5 4 3 3 4 7 7 4 5 10 12 11 14 13 19 27 24 21 22 25 29
11 11 10 8 6 5 7 8 6 6 6 5 5 5 6 7 7 6 5 6 6 8 10 8 10 12 9 10 13 15 17 13 12 12 8 9 11 11 11 12 12 13 13 13 12 13 11 8 7 8 10 7 5 5 6 6 4 2 4 4 5 4 3 7 9 11 10 7 4 3 2 4 9 8 8 7 8 12 13 15 15 19 25 23 21 19 20 23
12 12 11 9 7 6 6 8 8 7 7 6 4 6 9 8 7 8 8 8 8 8 12 10 10 10 9 10 11 15 15 7 3 3 4 6 8 9 10 10 11 12 12 12 13 14 12 10 8 8 9 5 4 4 4 6 4 1 4 5 4 5 3 7 7 8 9 8 6 3 2 6 7 8 13 11 7 15 16 13 19 24 27 28 27 25 24 24
13 13 12 10 8 7 6 7 9 8 7 6 5 7 8 8 8 8 9 10 9 9 14 12 9 10 13 12 10 13 10 3 4 3 5 4 6 8 8 8 9 10 11 12 14 15 13 11 8 7 7 3 4 4 2 5 5 2 4 4 5 6 5 7 6 6 8 8 7 4 6 7 5 8 16 17 22 32 31 25 30 34 34 34 31 30 30 29
13 13 13 11 10 9 8 8 9 8 8 8 8 9 9 10 10 10 10 11 10 9 14 15 12 14 17 15 11 12 11 12 13 10 9 7 7 8 7 7 7 8 10 13 16 16 14 12 9 7 5 1 3 5 1 3 5 4 4 4 5 7 8 11 10 10 9 9 10 8 7 6 7 10 11 21 36 40 38 36 37 38 38 37 36 35 34 34
13 13 13 12 11 10 9 9 9 9 10 10 11 12 13 13 12 12 11 12 11 10 12 16 16 17 17 14 11 12 15 16 13 9 9 8 9 9 6 6 7 8 9 13 16 16 14 12 9 6 4 2 4 4 2 1 2 4 5 4 4 7 10 11 11 13 13 13 15 11 10 12 16 13 12 32 47 40 37 36 33 32 31 29 27 26 28 31
13 14 14 13 12 11 10 10 10 10 11 12 13 14 16 15 13 13 12 11 11 10 10 13 16 16 15 13 11 10 13 11 6 6 7 8 9 9 7 6 7 8 9 13 16 15 14 11 9 7 3 4 5 3 4 3 3 5 6 5 4 7 10 10 11 14 15 14 13 9 10 16 17 11 16 38 41 29 24 20 16 15 15 15 18 21 23 25
13 14 14 13 12 11 11 11 11 11 11 12 14 15 16 17 15 13 11 9 10 11 11 12 14 14 12 12 9 6 8 8 5 6 7 9 9 8 7 6 7 9 9 13 15 15 13 9 9 8 3 3 5 2 4 5 3 3 4 5 7 11 12 10 12 15 13 12 12 10 9 14 11 2 14 27 17 10 10 8 11 14 18 23 26 26 24 23
13 13 14 14 13 12 13 13 13 12 12 13 15 16 17 17 16 14 11 10 11 11 13 14 14 13 12 11 10 9 9 10 9 9 10 10 8 7 6 5 7 9 10 12 14 13 11 8 7 7 3 2 4 2 3 5 3 3 3 6 9 11 12 11 13 15 10 7 10 9 8 12 5 4 20 29 14 13 19 21 25 26 29 31 27 24 20 19
13 13 14 15 14 14 14 14 14 13 14 15 16 16 17 17 15 14 12 12 11 11 14 16 13 12 12 13 16 15 15 15 14 13 11 9 7 6 6 5 6 9 10 11 12 10 9 7 6 6 4 4 3 1 2 3 3 3 3 4 9 8 8 9 9 9 5 3 6 3 7 10 6 12 34 38 25 25 28 30 32 29 28 25 20 18 17 19
14 14 14 15 15 15 15 14 14 14 15 15 17 17 17 17 15 14 14 12 11 11 13 13 11 12 11 13 16 13 13 14 13 11 9 8 6 6 5 4 5 9 10 9 9 8 8 8 7 6 4 5 3 1 1 1 0 2 2 1 6 7 6 6 2 2 4 3 4 4 5 10 7 17 31 27 23 23 24 27 28 25 24 20 18 19 23 28
15 15 15 15 15 16 16 15 15 15 15 15 16 16 15 15 14 14 14 13 12 11 13 12 12 12 10 13 15 11 11 11 9 8 8 7 6 5 4 2 4 7 9 8 7 7 7 7 7 5 4 4 2 3 1 4 2 2 1 2 3 2 5 6 2 3 4 3 5 6 6 9 2 13 20 17 18 16 17 22 21 21 22 22 23 26 33 37
15 15 15 15 16 17 16 15 15 15 15 16 16 15 14 13 13 13 12 13 12 12 13 12 11 11 10 13 13 9 9 9 8 7 7 7 5 4 4 2 2 6 8 8 7 6 7 7 6 4 3 3 2 2 2 5 3 2 1 4 3 2 6 8 3 3 2 1 4 5 5 8 6 12 12 8 11 8 12 22 25 29 31 32 35 36 39 40
16 16 15 16 17 17 16 16 16 16 16 16 15 14 13 12 12 11 11 12 12 12 12 10 11 10 8 10 10 7 6 6 6 6 7 6 4 3 4 2 2 6 8 7 6 7 8 8 6 3 3 3 3 3 2 4 4 3 0 4 3 3 4 6 3 1 1 1 1 3 4 7 5 10 13 8 11 13 19 29 34 38 40 39 39 39 40 40
16 16 16 16 17 17 17 16 16 17 16 16 15 13 12 12 11 11 11 12 12 11 10 8 8 9 9 9 8 6 5 5 5 6 5 3 3 3 3 2 2 6 9 8 7 8 8 7 5 3 2 2 3 4 3 3 5 3 1 2 4 3 2 5 4 3 2 2 2 3 5 12 10 12 26 27 22 22 24 30 35 38 40 41 40 40 41 41
16 16 16 16 16 17 16 17 17 17 16 15 14 13 12 12 11 11 11 11 11 8 8 9 6 3 8 10 8 5 4 5 5 6 5 2 2 2 2 1 4 9 9 8 6 6 5 3 4 1 2 3 2 5 2 4 4 1 2 2 3 3 2 4 4 2 2 1 4 4 7 18 15 11 26 34 26 21 27 30 31 35 39 41 42 41 39 38
14 14 15 16 16 16 16 17 17 16 15 14 13 12 12 11 10 11 12 12 9 5 3 7 8 4 2 4 6 6 5 5 5 5 4 3 1 0 1 3 8 10 9 6 3 3 3 2 4 1 2 2 3 6 7 8 5 4 5 4 2 5 4 5 6 5 1 2 6 7 8 16 17 12 16 29 27 19 28 31 27 33 36 38 39 37 33 30
12 12 14 15 15 15 16 15 15 15 14 13 12 11 10 8 5 7 10 12 13 12 8 6 9 10 6 4 3 5 6 6 6 5 4 3 3 2 4 6 7 5 4 3 2 1 2 2 3 5 6 5 6 6 6 5 5 4 3 1 3 5 6 6 5 6 1 2 7 5 7 13 18 15 13 24 25 18 23 25 24 30 32 33 34 32 30 26
11 12 12 13 14 14 14 14 14 14 13 13 12 10 7 5 2 3 5 8 11 14 16 14 12 13 11 9 7 6 7 7 7 6 4 4 5 5 4 5 4 2 1 1 2 1 2 4 6 6 7 4 3 4 6 4 4 3 1 2 4 4 6 7 3 5 2 1 5 2 5 14 18 16 16 19 17 14 19 17 21 27 27 28 29 28 27 22
11 11 11 11 12 12 13 13 13 13 13 13 12 11 9 6 5 6 5 6 9 11 15 18 16 15 14 13 11 10 8 6 6 6 4 4 5 4 3 3 3 2 1 1 2 3 1 5 7 4 3 4 4 4 5 4 4 3 2 1 4 3 5 7 4 5 2 1 5 5 7 15 19 17 17 17 12 16 23 22 24 26 25 27 27 24 22 18
10 10 10 10 10 11 12 12 12 13 12 12 13 13 10 7 6 6 6 6 8 10 11 14 14 14 13 11 10 8 6 4 4 4 4 4 4 3 2 4 3 2 1 2 4 2 0 5 5 2 4 5 4 3 5 4 2 2 3 2 4 3 2 4 4 5 3 1 4 6 6 12 14 12 13 14 10 14 21 22 23 23 24 27 24 21 20 17
9 9 9 9 9 10 10 11 11 11 11 11 12 12 10 7 6 5 7 5 4 5 6 8 9 9 9 7 6 5 5 4 3 3 4 4 4 2 2 4 4 2 2 3 6 4 4 3 2 5 3 3 4 1 4 4 2 2 4 5 4 3 3 5 5 6 4 2 2 5 6 7 7 7 8 8 5 8 11 12 17 18 17 18 15 13 13 14
8 8 7 7 7 8 8 9 10 9 9 10 9 9 9 8 6 5 5 2 4 4 3 4 5 5 6 5 5 4 3 3 3 3 3 4 6 3 1 3 2 2 4 4 6 3 5 2 4 5 3 3 5 2 3 5 2 5 4 6 5 3 4 5 6 6 5 4 3 5 5 6 6 6 9 8 6 9 7 5 14 18 11 6 6 6 8 10
8 7 7 6 6 7 7 7 7 7 7 7 5 6 9 9 5 5 2 3 3 4 2 3 3 3 5 4 4 3 1 2 3 4 3 4 7 5 2 2 1 1 4 4 3 2 1 1 2 4 4 4 4 2 5 6 3 3 3 3 4 2 0 3 5 4 2 4 4 4 2 6 6 7 11 9 9 13 11 6 12 15 8 2 6 9 9 11
9 8 7 7 7 7 6 5 6 7 5 4 4 5 7 7 4 3 1 4 3 2 1 3 3 2 4 4 5 4 1 2 1 2 3 4 5 5 3 1 1 1 3 3 1 2 2 3 2 3 4 4 2 2 4 6 6 3 4 3 4 4 2 0 4 3 1 4 5 3 4 3 6 7 10 6 8 12 13 10 9 9 8 2 9 11 9 12
9 9 8 8 8 8 7 6 6 6 5 3 4 6 6 6 4 2 2 3 2 1 1 2 3 2 2 4 6 4 0 0 2 1 2 4 5 4 2 4 5 3 2 4 4 4 2 3 2 4 5 2 3 4 3 5 4 3 4 4 4 4 3 3 5 2 1 3 5 3 2 1 6 7 6 4 6 10 11 10 8 7 8 5 12 14 10 12
10 10 9 9 8 8 8 8 7 6 5 2 4 6 7 6 3 2 3 0 1 1 1 2 3 2 2 4 4 2 1 1 1 1 2 3 4 2 1 4 6 4 0 2 4 4 1 3 4 6 4 3 4 3 3 4 2 3 4 3 3 4 4 4 5 3 3 3 3 3 2 1 5 7 4 0 2 7 8 7 7 10 12 13 19 18 13 15
10 10 10 9 9 8 9 9 7 6 5 4 4 6 7 6 3 5 1 2 0 0 0 2 2 1 1 2 0 1 2 1 1 3 2 3 4 2 3 3 5 5 1 2 1 3 0 0 1 2 3 4 4 1 0 3 3 4 4 3 4 4 4 3 3 4 4 2 5 4 1 1 3 6 5 3 3 4 3 6 8 11 16 20 23 21 20 22
10 11 10 10 9 9 9 10 8 7 7 4 4 8 8 4 4 5 2 3 1 1 1 1 1 1 3 2 1 1 1 0 0 3 1 1 2 2 3 3 1 2 3 4 2 2 1 1 2 2 3 5 6 3 3 2 3 4 3 3 3 4 4 4 4 4 3 4 5 4 2 2 3 6 5 4 5 4 2 6 11 12 17 25 29 29 28 26
10 11 11 10 10 9 10 10 8 8 7 3 7 11 8 2 1 2 3 3 1 2 1 0 1 2 3 1 1 1 1 1 1 2 2 2 2 3 3 4 4 1 3 2 2 3 2 3 1 1 2 3 4 3 3 4 4 5 4 4 4 3 4 3 4 1 2 5 4 3 2 2 6 9 9 11 12 9 7 9 12 12 17 27 32 31 28 22
11 11 11 11 10 9 10 10 8 9 7 6 11 8 5 3 2 4 3 2 1 1 0 1 2 2 3 2 1 1 1 1 1 1 2 1 0 3 3 3 5 2 1 2 1 4 3 2 2 2 1 1 2 4 1 1 2 3 4 4 3 2 2 2 4 2 3 3 2 3 2 2 6 8 9 11 10 10 10 15 19 19 22 28 29 27 23 17
11 11 12 12 10 10 11 10 9 8 8 11 10 4 5 2 5 3 2 3 2 2 2 2 2 3 3 0 2 2 1 1 0 1 1 1 1 3 4 3 3 5 3 2 1 0 1 3 1 1 1 1 1 3 4 4 4 3 4 5 3 4 4 3 3 3 4 3 3 3 1 3 4 5 7 7 8 12 14 17 21 21 21 22 21 20 18 13
11 12 13 12 12 11 11 11 10 7 12 14 6 4 3 4 4 2 3 4 1 1 2 4 4 3 3 2 3 2 2 2 0 3 1 1 2 3 3 4 5 4 5 2 2 2 2 4 1 1 3 0 1 2 3 4 3 1 2 5 2 4 4 2 3 4 1 3 3 2 3 5 5 9 13 9 8 10 9 9 11 12 12 13 15 16 12 9
11 12 13 13 13 12 11 12 9 9 16 13 4 1 5 4 3 4 3 2 3 3 2 4 3 2 3 3 3 3 0 1 1 1 1 2 3 4 3 3 6 7 6 5 3 1 1 4 2 2 2 1 1 2 1 1 2 2 2 2 4 3 5 3 1 1 3 1 4 1 3 5 4 9 11 7 8 9 8 6 6 12 15 13 14 14 10 7
11 11 12 13 13 13 14 13 9 12 17 10 3 4 5 3 4 5 3 3 2 4 5 1 1 3 3 2 2 3 1 1 0 0 2 2 2 4 4 3 5 9 7 4 2 3 3 3 3 1 0 1 1 0 2 2 2 3 2 4 3 2 4 4 1 3 3 2 4 1 3 5 3 5 7 8 10 11 10 8 8 13 16 15 16 15 13 10
11 10 11 13 13 13 15 14 11 16 14 5 1 5 3 3 4 3 4 4 2 3 4 2 3 2 3 2 2 4 3 3 2 1 2 2 3 5 4 2 3 4 4 3 0 2 2 2 4 1 1 2 3 1 1 3 2 3 2 2 2 2 1 2 1 1 1 2 4 3 4 3 4 5 6 9 10 11 11 9 8 10 11 14 18 16 14 11
10 8 8 11 14 14 15 15 15 17 10 2 4 4 2 4 4 3 6 4 2 3 2 4 2 1 3 4 3 4 3 3 2 0 1 1 2 3 4 2 2 1 2 4 3 2 2 0 4 2 1 1 2 1 3 1 2 2 1 2 1 2 3 2 2 3 2 2 3 4 4 3 7 7 6 10 12 10 10 9 8 8 11 16 18 15 14 13
10 6 5 10 14 14 15 16 15 13 5 2 6 4 2 3 4 4 7 4 2 3 2 3 3 1 3 4 3 2 1 2 3 1 1 1 2 3 2 2 3 1 1 3 2 0 3 0 3 3 3 2 2 3 5 6 4 2 0 1 1 1 2 0 1 2 3 2 2 2 4 7 7 5 8 13 13 10 9 8 8 10 16 21 19 17 18 16
11 5 4 10 13 14 17 16 10 6 3 2 3 2 1 2 1 2 6 5 1 1 2 3 4 3 3 3 3 3 2 1 3 2 2 2 2 3 1 1 4 4 3 3 0 2 2 2 3 1 2 3 5 4 2 4 4 4 5 4 4 4 4 1 3 1 2 2 4 2 4 10 6 5 8 12 11 9 8 7 8 11 18 21 19 19 21 20
12 4 4 11 14 18 20 11 3 2 3 4 3 3 3 2 1 1 3 3 1 0 1 1 2 3 3 3 2 3 3 2 2 2 3 5 5 4 2 3 5 6 5 3 3 3 2 3 2 3 4 5 5 4 1 0 2 3 3 3 4 4 5 4 3 3 1 1 2 4 1 9 5 5 7 9 9 8 6 6 9 15 21 22 20 20 21 20
11 6 6 11 16 22 18 4 3 1 2 3 2 3 3 2 1 2 2 3 1 1 0 1 2 3 3 2 3 3 4 3 4 5 3 4 5 5 4 6 7 6 4 2 3 2 2 2 1 4 4 2 4 3 2 2 2 1 3 2 4 3 3 4 5 3 2 3 3 3 2 10 5 4 5 7 9 12 12 11 12 17 24 24 21 21 22 23
9 7 7 11 18 24 15 3 3 5 5 1 1 2 2 2 4 4 3 5 4 3 2 2 3 3 2 2 3 4 5 3 4 6 3 3 4 3 4 7 8 6 3 2 3 5 3 1 2 1 5 5 5 5 4 3 1 4 3 2 5 4 5 3 2 2 1 6 8 5 5 12 7 2 5 7 7 9 14 17 15 17 25 27 25 25 25 26
7 6 5 10 21 24 12 4 5 5 5 3 1 3 2 2 7 9 6 5 6 6 3 2 2 2 2 2 2 1 5 2 2 3 2 2 4 2 2 6 7 5 3 3 5 6 4 2 3 4 3 4 4 3 3 3 2 3 2 3 6 6 7 4 2 2 3 6 7 6 8 12 9 11 14 12 8 9 14 20 20 18 24 27 26 26 25 25
6 4 3 5 15 20 13 7 5 3 4 6 2 3 6 4 5 8 7 5 6 6 3 0 2 4 3 2 1 3 5 2 1 1 1 3 4 2 1 4 5 4 3 4 6 5 3 1 4 7 7 8 7 6 5 3 3 3 3 4 6 7 7 5 4 4 5 3 3 6 12 15 14 16 21 19 15 15 15 18 20 18 19 22 23 23 24 26
5 4 6 5 6 12 11 9 7 3 3 8 4 3 8 7 3 3 6 5 4 5 3 0 3 4 3 5 4 4 4 1 1 1 3 5 4 2 2 2 3 4 3 3 5 4 3 2 6 8 10 12 8 5 5 4 4 6 6 5 7 8 8 8 8 8 5 2 7 12 15 16 17 19 23 20 19 19 16 16 22 23 21 21 22 23 27 31
8 4 9 10 5 6 7 10 13 9 5 6 5 2 5 7 5 4 6 3 1 5 5 2 4 9 9 9 6 3 2 1 2 4 4 3 3 2 1 2 2 4 4 2 3 4 4 4 5 5 9 13 10 6 5 5 5 5 7 7 7 10 13 15 16 11 6 7 15 14 12 13 17 21 22 19 17 18 18 23 28 30 29 26 24 26 32 37
11 6 7 11 7 6 10 13 15 14 9 5 4 4 6 9 8 6 4 3 1 6 7 5 9 12 11 8 7 5 5 5 5 6 4 3 3 1 1 2 2 2 2 2 1 2 3 3 2 2 5 11 11 7 6 6 6 5 7 9 9 13 17 16 14 14 15 17 20 17 15 16 19 21 20 22 25 23 24 31 33 32 33 30 27 29 35 38
13 9 7 9 7 5 8 9 11 10 8 6 6 7 6 8 10 6 3 7 5 3 6 10 11 8 9 9 8 9 12 11 8 7 7 6 3 4 3 3 3 1 1 2 0 0 2 3 1 4 2 10 7 2 0 3 5 6 7 9 13 14 11 11 14 15 15 17 20 19 17 17 21 22 20 26 32 27 23 27 29 30 32 30 28 30 33 35
21 14 8 5 4 6 7 5 7 6 5 6 8 7 6 10 13 8 5 12 14 8 10 15 11 6 6 7 9 16 18 14 11 11 12 10 6 7 6 4 7 6 3 3 2 2 3 3 2 5 1 8 4 5 4 2 1 2 7 14 18 14 9 12 13 11 12 18 19 14 11 14 20 21 16 16 20 20 18 19 22 27 30 27 26 28 31 33
30 22 11 4 4 7 8 3 4 6 5 7 10 9 8 10 11 10 5 11 18 19 18 17 11 7 4 7 14 25 27 22 19 14 10 8 4 6 7 6 9 9 6 5 3 2 5 3 1 2 2 7 6 3 2 3 3 4 8 16 20 16 14 14 9 8 16 18 12 10 12 16 17 15 11 10 13 13 13 14 18 24 27 26 25 27 32 35
Wind_Direction
242 254 264 269 268 262 247 233 295 300 247 245 274 283 281 298 298 292 292 269 243 284 310 327 341 18 74 1 347 337 291 292 288 280 260 247 245 248 254 254 241 236 237 241 234 228 231 234 235 226 211 199 214 228 204 210 204 185 165 183 218 194 196 192 184 193 176 241 265 218 195 192 266 281 267 283 261 257 262 259 258 256 257 263 268 269 268 269
243 249 254 258 267 262 243 224 266 320 296 270 286 275 262 283 295 296 294 268 259 312 341 347 358 17 21 330 331 338 315 299 288 275 265 257 248 244 247 243 241 243 241 240 231 221 223 230 230 220 204 197 223 219 198 203 195 181 127 189 227 199 204 206 185 192 184 234 248 246 237 207 244 277 289 286 266 266 266 264 262 262 267 271 273 270 268 267
242 245 248 248 261 264 249 233 245 293 290 275 273 264 265 298 308 300 293 284 285 325 343 341 354 356 354 333 325 332 326 305 284 278 272 254 243 241 244 246 249 251 245 239 225 216 221 221 214 211 200 202 228 207 194 196 195 197 145 213 247 215 231 245 223 223 224 244 265 265 248 220 251 268 268 268 280 280 259 259 258 261 273 284 287 280 274 271
243 245 246 244 255 266 255 241 239 260 262 257 269 296 316 323 319 306 304 313 313 323 322 323 345 337 326 331 331 334 328 307 283 277 267 243 237 242 250 255 259 252 242 235 219 212 216 203 195 202 196 204 214 192 196 198 196 190 164 204 237 184 233 256 246 254 246 243 255 250 246 263 269 262 250 258 296 284 256 259 262 266 281 293 298 292 283 277
245 247 249 246 251 261 257 243 239 249 254 245 261 308 317 322 323 312 315 325 323 325 317 322 344 331 325 334 334 335 329 319 296 246 204 219 238 258 264 262 259 248 235 226 212 207 207 196 188 191 190 198 176 168 215 205 189 182 208 226 216 165 212 270 267 267 250 234 239 236 243 270 269 253 252 240 237 262 265 278 280 281 288 291 291 288 283 279
246 249 251 250 253 262 258 243 238 242 250 247 263 292 300 315 325 320 319 322 325 322 315 326 342 323 326 327 320 325 313 294 320 265 213 233 269 282 273 264 253 240 231 217 206 203 202 195 193 190 180 184 171 177 217 193 189 231 259 258 237 203 223 274 281 276 256 232 231 238 253 265 272 272 265 243 239 261 273 280 282 285 285 284 283 280 278 276
249 249 251 251 252 261 260 248 243 243 253 260 274 286 290 305 318 321 317 317 315 300 305 322 328 319 320 314 314 318 281 273 297 277 246 261 293 298 282 269 243 228 226 212 204 201 200 195 198 191 160 136 191 198 215 178 184 202 261 278 257 238 242 263 273 272 264 248 250 259 266 264 257 275 283 260 258 268 278 282 283 285 283 279 276 275 275 274
254 251 252 252 251 257 261 257 252 249 259 270 281 291 297 304 311 313 310 309 302 284 297 309 308 312 312 308 327 321 284 283 294 267 250 270 297 302 291 270 230 219 217 209 205 199 201 198 197 190 163 184 191 187 172 182 203 193 236 262 255 254 258 269 274 270 268 261 262 262 262 257 258 273 283 270 271 277 282 285 285 283 279 274 273 277 277 275
255 254 252 253 253 255 258 258 257 256 264 275 283 291 299 306 309 307 301 304 301 289 296 299 300 307 304 308 331 315 289 294 287 247 257 284 301 301 290 265 221 211 208 205 202 199 202 199 203 204 202 208 184 170 151 164 244 207 222 251 259 269 278 282 276 271 268 262 258 252 258 262 264 278 275 271 277 283 283 284 281 281 279 277 284 292 289 281
253 255 254 252 253 254 255 254 256 260 268 275 282 289 296 302 303 298 293 296 300 298 301 304 305 304 297 306 315 292 291 297 268 258 279 294 298 295 288 262 217 207 204 203 199 199 201 203 213 208 211 198 168 148 149 165 231 235 240 268 269 274 283 281 271 269 265 260 250 236 258 268 260 259 270 270 275 278 275 265 266 280 285 286 291 294 293 284
252 255 256 254 253 252 253 254 257 262 269 274 280 288 293 295 294 290 284 284 293 303 303 305 310 306 299 294 269 259 292 294 279 284 292 298 298 287 283 263 225 206 200 201 197 198 201 207 211 196 207 188 157 166 190 202 254 293 309 295 283 290 292 268 258 263 256 262 253 235 266 272 250 167 247 255 257 271 279 278 278 283 285 287 289 291 290 288
253 254 256 258 257 256 255 256 261 264 268 274 280 286 289 288 287 283 279 280 288 300 299 300 305 298 290 271 256 265 285 282 282 291 296 299 293 283 281 263 230 205 197 195 191 191 195 200 200 200 204 162 146 128 226 239 266 299 358 312 298 332 316 263 255 262 228 247 255 215 287 268 204 222 248 256 265 275 281 283 285 287 287 289 286 282 283 294
254 256 257 260 262 262 261 260 261 263 267 275 279 283 284 283 281 277 277 276 278 286 288 287 280 273 268 264 269 277 279 274 279 291 301 302 292 287 283 260 226 203 195 187 181 182 187 194 199 208 191 161 167 173 223 297 263 292 43 49 311 348 324 276 311 255 181 212 215 132 287 263 201 236 254 266 273 276 281 282 284 286 288 289 282 275 279 291
253 256 260 262 263 264 265 263 261 262 268 274 277 280 279 279 279 276 274 271 272 277 278 273 265 259 252 263 277 278 269 271 280 288 296 299 293 295 294 268 217 200 194 186 178 178 186 195 201 204 181 169 183 181 292 359 42 305 4 47 350 345 283 295 353 162 160 217 195 142 256 263 266 269 270 279 280 281 283 281 286 289 291 291 284 279 282 289
252 255 259 261 262 263 264 263 262 264 271 273 276 278 276 277 279 275 270 270 274 273 270 265 257 254 257 270 278 276 265 263 272 285 296 301 300 310 318 305 199 188 186 185 181 179 184 187 189 175 152 160 134 145 322 349 9 19 320 307 345 181 268 307 329 157 153 247 187 154 248 272 290 287 289 288 274 275 284 289 294 292 292 290 287 285 286 288
250 252 255 258 261 263 265 265 266 269 272 273 275 276 274 277 280 277 271 271 274 270 265 257 249 250 266 280 276 272 267 258 271 290 301 309 317 340 345 346 158 172 172 174 176 175 178 172 160 127 122 155 113 89 23 349 333 3 194 261 273 214 284 320 318 225 221 86 192 200 257 285 276 284 297 290 273 285 294 293 291 291 292 291 289 289 289 289
249 250 252 255 259 262 265 266 268 271 273 274 276 278 279 279 278 275 270 269 271 268 259 247 249 257 261 271 275 268 263 261 279 300 306 320 341 355 357 11 132 162 161 159 165 165 171 159 141 133 89 85 97 94 43 316 286 319 5 251 255 232 260 304 310 323 17 96 238 240 252 266 264 282 285 281 282 288 288 284 285 288 290 289 290 289 288 290
249 250 252 254 257 260 262 264 267 270 272 275 278 280 280 277 273 271 268 266 266 267 259 242 231 267 265 260 259 256 267 277 286 297 295 304 348 14 1 36 137 155 149 148 161 156 161 139 117 120 22 22 88 121 166 235 215 206 207 215 289 289 246 260 279 304 14 38 248 246 260 268 270 272 277 281 284 281 277 277 279 282 284 286 288 288 290 292
251 251 252 254 256 257 258 260 263 267 271 273 274 274 275 275 272 269 263 256 249 243 261 230 205 199 284 276 251 247 272 289 291 290 276 265 285 56 113 131 144 153 144 137 159 143 135 99 94 120 244 227 196 170 194 206 163 147 173 164 251 284 269 246 256 268 335 317 261 238 250 272 280 274 273 282 284 277 274 277 276 277 280 283 286 289 292 294
251 249 249 252 252 254 257 259 263 266 268 269 267 266 267 265 267 271 258 249 243 237 244 244 224 230 260 313 279 255 275 285 288 277 256 237 205 165 137 143 146 138 129 151 181 115 109 150 182 206 214 217 222 197 179 172 126 111 140 148 253 261 282 267 266 289 331 268 264 239 253 274 280 280 273 277 282 277 271 275 275 274 276 279 284 289 292 296
250 245 246 250 252 256 260 262 265 265 266 264 259 253 249 236 240 298 279 262 259 250 249 255 252 246 256 276 275 275 286 288 283 264 250 234 193 177 163 150 133 106 336 185 151 72 100 188 229 230 210 199 214 167 134 138 101 75 174 275 285 248 270 272 275 303 325 225 267 344 316 286 282 284 278 273 274 266 265 270 271 272 276 279 283 288 294 299
251 246 247 250 254 259 261 263 264 262 262 259 251 243 238 243 258 281 300 289 276 263 251 251 253 250 253 263 269 277 282 285 285 265 250 229 196 201 195 122 108 156 307 45 98 25 26 228 250 242 168 110 71 99 117 133 107 88 150 244 291 259 280 295 319 323 337 204 275 360 345 291 284 285 280 272 256 257 263 262 265 271 275 278 283 289 295 300
251 247 248 251 254 258 260 263 263 262 262 257 252 241 235 251 259 272 301 298 278 266 250 246 249 248 249 256 263 268 260 258 282 264 242 226 203 207 172 110 89 121 52 120 147 127 250 254 259 149 129 105 72 67 99 104 100 124 147 164 269 275 316 290 306 320 309 216 279 322 314 283 288 292 284 277 253 252 263 263 266 269 271 278 283 285 288 297
247 243 245 248 252 256 260 265 264 266 265 257 253 239 228 241 247 281 302 291 281 273 240 237 242 243 244 244 244 249 240 237 266 249 228 219 189 179 172 122 96 135 204 166 148 173 224 234 133 107 106 126 123 101 119 133 280 284 192 192 237 257 232 241 285 317 317 341 334 328 314 285 301 315 302 295 266 251 265 275 280 281 279 281 283 285 291 303
244 240 239 242 249 256 262 267 267 269 265 259 254 233 219 226 241 296 321 326 297 288 216 216 223 221 222 221 224 232 242 242 235 218 212 202 180 158 122 122 119 202 211 147 129 215 256 200 134 117 82 111 136 198 202 170 249 306 239 215 227 238 252 275 313 339 3 354 344 19 356 293 307 317 286 292 308 288 288 307 297 296 291 273 290 326 334 330
243 237 233 239 245 253 257 265 272 271 262 258 248 215 213 221 241 290 337 49 316 278 173 182 199 197 202 208 206 197 280 281 220 203 192 187 183 165 129 121 68 201 183 151 141 219 266 84 117 139 135 112 105 259 238 166 138 303 263 213 203 174 164 322 348 12 14 294 296 66 85 268 303 295 267 286 312 295 299 311 291 282 258 244 340 354 1 349
242 238 234 236 238 247 249 256 269 259 247 244 214 192 207 211 217 264 343 32 324 260 151 169 177 187 203 201 184 164 249 278 149 170 176 172 184 171 184 245 52 187 181 147 210 241 122 84 50 90 104 103 110 266 238 146 126 247 244 144 118 99 108 137 55 53 248 277 312 38 128 249 295 270 260 297 311 293 299 304 288 259 225 249 352 355 0 347
241 239 237 234 237 246 241 246 261 242 228 233 195 184 180 180 192 186 77 31 309 168 119 170 156 158 184 182 184 168 125 147 101 117 166 166 188 170 209 225 173 190 201 142 217 260 127 154 193 121 91 117 200 234 223 143 123 244 222 138 120 107 122 122 82 65 333 348 324 331 100 236 275 272 286 324 299 291 299 296 288 268 241 270 333 338 345 341
242 238 234 233 239 244 237 238 246 229 218 194 167 178 166 161 173 83 82 17 271 114 97 144 150 156 135 147 181 183 113 71 95 157 134 150 181 151 173 201 151 135 126 138 199 247 165 199 202 143 135 211 211 224 201 147 134 206 165 107 72 75 78 73 78 78 33 19 274 289 45 249 268 281 297 334 248 273 288 287 275 283 282 293 316 320 320 325
244 236 228 233 237 239 233 229 229 216 198 170 164 173 164 161 107 62 43 256 219 247 117 146 191 233 92 131 306 310 158 158 112 133 120 141 165 128 116 144 118 112 29 1 195 227 4 69 227 157 170 177 152 151 126 121 123 135 117 47 29 31 37 44 53 72 55 316 262 277 309 165 280 282 258 198 202 229 285 308 290 295 302 303 311 314 312 320
243 235 228 233 236 236 228 220 220 206 189 179 169 161 156 150 76 85 229 245 156 317 19 117 255 36 83 149 250 325 113 352 78 133 141 121 131 124 112 118 104 82 13 345 273 254 7 123 233 200 165 135 113 80 29 68 97 102 86 47 27 349 9 26 358 43 79 257 265 295 292 181 244 266 250 249 262 235 227 297 294 300 304 305 311 311 312 320
239 235 231 231 234 238 223 216 216 201 195 169 155 158 146 94 24 174 253 303 13 290 266 204 294 54 78 98 247 267 105 25 25 117 153 146 144 191 177 173 180 30 334 273 262 304 247 213 250 96 162 159 114 86 35 15 37 75 82 67 52 342 356 359 318 2 197 248 273 323 319 209 247 262 264 271 277 266 239 253 269 276 287 297 304 306 311 318
233 232 232 231 233 235 221 217 214 203 203 165 157 153 99 76 227 222 261 317 348 303 3 67 15 42 63 42 311 263 158 217 309 80 154 151 238 256 254 208 167 135 291 207 314 340 311 299 12 79 244 239 144 131 145 303 72 113 128 110 114 108 53 301 281 284 269 264 278 306 321 265 275 274 255 251 260 265 260 264 268 269 276 286 294 301 310 315
232 230 231 229 229 228 219 216 214 206 192 168 158 119 78 158 237 223 242 259 268 351 20 55 44 32 41 87 275 266 170 258 245 106 49 59 18 285 277 252 172 117 101 156 246 129 257 304 38 141 283 345 149 169 166 149 128 161 155 122 137 151 151 232 240 232 267 293 294 302 312 212 234 276 266 250 259 268 267 268 270 272 275 280 289 301 310 313
233 228 227 226 224 223 214 210 213 199 178 169 140 73 134 216 251 214 231 243 233 15 7 22 61 56 334 296 308 318 196 248 78 109 122 175 191 213 214 219 197 143 117 163 232 148 201 265 277 282 274 122 178 212 151 112 113 193 135 108 162 183 149 175 196 185 208 322 299 265 242 223 226 282 290 296 300 290 283 273 269 279 288 289 295 308 318 317
238 228 225 223 220 220 210 204 206 186 176 164 101 92 199 227 215 183 201 155 130 142 113 17 51 126 288 292 311 323 218 213 23 70 256 230 213 214 217 219 194 179 157 157 205 167 171 275 302 326 293 57 112 222 88 79 161 160 134 170 223 182 118 113 223 357 65 326 279 246 256 286 307 288 294 331 332 314 316 316 306 309 315 313 310 324 339 330
242 231 225 220 216 216 207 200 193 181 177 158 116 209 219 230 194 183 177 125 122 133 119 56 252 188 236 259 254 269 218 179 258 234 240 262 250 208 222 258 197 193 192 160 201 202 160 272 308 52 259 343 10 223 27 27 120 118 166 220 219 131 84 91 251 346 40 232 272 282 252 287 319 289 310 335 317 303 306 314 321 318 321 323 324 334 343 339
241 236 230 221 215 213 203 195 185 177 172 147 225 233 218 205 202 179 170 156 129 108 112 198 231 179 194 208 226 217 195 208 229 204 203 246 259 190 177 236 193 202 224 153 169 262 159 269 306 20 225 310 2 51 24 2 50 114 181 216 125 140 120 77 153 234 258 256 283 296 282 265 227 239 290 296 284 285 293 303 315 312 312 314 319 331 338 337
232 227 232 224 213 208 200 193 181 172 166 153 221 238 238 221 242 205 183 175 141 136 153 213 224 81 178 183 201 205 196 205 194 164 209 211 265 202 175 191 165 329 284 151 167 246 112 176 285 302 273 302 19 150 197 231 38 63 347 343 35 160 172 149 142 168 199 241 279 304 320 258 222 212 235 261 265 267 275 288 296 291 290 296 304 320 327 325
214 206 233 222 207 200 191 183 173 166 166 192 198 220 284 251 257 205 187 183 153 168 204 201 173 182 209 203 216 209 107 158 161 157 248 239 274 253 210 153 136 89 18 103 140 194 91 177 257 299 312 253 206 216 195 182 162 135 186 271 234 167 129 176 229 142 146 170 217 292 308 271 244 191 209 245 258 252 248 261 271 276 285 291 298 311 317 314
198 198 238 210 198 190 175 166 165 166 177 215 203 221 256 229 246 203 193 197 192 144 162 168 165 177 187 192 225 204 123 124 164 178 243 238 241 256 280 132 152 147 100 73 234 212 145 175 197 232 281 220 231 256 216 184 171 161 183 197 187 158 122 140 269 280 105 159 189 162 287 275 251 171 206 237 252 252 238 238 258 271 278 286 298 307 309 306
188 199 220 194 189 181 167 159 174 150 162 205 206 206 213 206 206 199 191 195 220 29 89 123 163 175 178 182 200 175 152 166 179 185 232 226 214 219 203 160 162 152 127 131 221 207 142 118 141 233 226 215 252 293 9 186 115 131 208 207 166 156 138 146 212 246 163 172 183 114 242 270 248 174 214 238 252 271 266 238 257 275 277 282 292 297 297 297
190 197 194 186 184 174 164 174 288 229 225 223 191 202 212 192 147 146 179 203 218 108 51 288 200 196 220 194 159 167 186 197 188 191 220 232 230 234 192 164 159 145 123 152 205 174 136 121 153 282 294 312 314 338 14 14 64 158 245 189 162 177 148 149 176 181 153 194 188 113 240 269 272 167 213 264 289 300 297 268 256 271 279 282 285 289 291 291
192 191 185 183 181 175 174 201 200 211 246 240 122 235 224 214 194 169 180 209 202 163 160 225 210 208 235 141 123 191 207 200 206 212 206 203 235 247 184 176 177 169 165 196 172 164 192 187 117 301 321 335 340 351 344 333 302 221 236 187 192 164 107 114 151 113 260 224 191 157 238 260 283 302 253 266 281 288 286 275 262 266 279 284 287 289 290 289
176 175 180 183 182 183 197 222 161 180 208 178 254 242 191 238 217 201 201 204 193 179 171 222 195 140 113 97 66 236 217 208 241 232 184 209 253 267 179 194 196 198 223 199 155 157 186 192 137 153 227 256 267 276 253 248 206 214 226 195 201 173 143 153 129 126 245 232 180 177 244 257 286 304 287 274 262 261 272 275 269 262 271 282 287 289 291 291
177 181 178 175 187 198 223 240 181 154 171 172 244 230 192 219 234 207 205 210 204 188 165 205 155 103 83 127 153 245 241 251 350 239 215 230 258 288 179 204 211 213 207 161 156 142 120 212 200 186 206 223 226 222 204 157 131 186 212 193 191 192 173 141 117 180 205 202 183 214 248 264 279 283 282 284 284 282 280 282 281 273 271 279 285 289 292 293
189 201 182 156 192 216 236 242 212 185 161 171 184 205 195 206 234 195 196 211 213 189 181 245 163 163 174 167 174 227 232 230 72 207 231 231 252 281 211 207 224 213 187 159 174 142 97 247 226 205 225 239 241 223 180 163 195 199 195 193 188 189 175 167 199 209 153 130 253 235 234 254 267 267 269 276 280 282 282 281 285 288 287 287 290 293 294 294
202 224 194 178 186 203 215 225 208 196 185 175 181 202 187 190 195 191 194 206 239 189 192 251 223 203 191 169 166 195 179 172 252 228 219 226 253 297 263 229 217 193 174 170 184 138 128 237 228 198 235 253 257 243 193 197 233 205 197 209 188 180 190 200 215 216 172 213 249 247 235 245 258 260 263 266 265 269 275 278 283 288 290 291 293 295 295 295
211 243 209 195 210 198 194 199 187 188 200 184 191 220 190 188 203 205 164 103 292 226 193 217 237 214 195 176 166 185 190 186 222 228 203 195 205 188 233 235 207 165 147 152 200 155 155 239 252 153 259 269 267 253 211 210 240 234 225 229 210 203 206 207 219 226 221 233 251 261 263 261 260 260 262 265 264 267 274 279 281 284 287 289 292 292 291 293
211 228 207 198 226 210 187 179 162 180 201 180 209 228 186 186 206 211 161 153 189 235 186 216 232 196 186 196 186 215 221 193 199 216 179 167 201 197 210 214 168 121 89 138 209 230 181 246 358 79 309 282 283 318 153 210 225 234 250 250 236 228 219 215 228 231 231 245 253 257 266 269 265 262 260 264 271 276 275 274 276 279 282 285 285 284 285 289
210 217 206 195 218 184 172 158 132 159 186 179 206 212 186 208 207 189 193 203 203 191 177 204 215 151 168 202 202 231 233 201 205 218 181 173 198 192 200 190 148 139 152 168 156 119 169 247 8 67 313 279 310 25 27 47 102 236 264 253 241 233 218 216 222 217 218 236 246 253 261 259 258 263 263 260 266 270 268 269 274 277 277 277 275 277 283 287
214 220 219 208 230 193 169 146 129 167 195 199 205 201 198 215 192 160 194 233 219 215 206 198 181 140 165 200 213 234 238 223 227 233 198 190 197 181 196 190 160 155 160 162 149 138 156 163 99 117 213 268 295 359 66 45 359 264 237 233 231 228 224 228 233 219 217 223 230 236 239 244 256 272 280 265 251 252 262 270 271 273 277 278 276 277 284 288
Height
1515 1515 1514 1515 1515 1515 1515 1514 1515 1515 1515 1515 1514 1514 1515 1514 1514 1513 1513 1514 1513 1512 1511 1510 1509 1508 1508 1508 1507 1506 1504 1503 1502 1501 1499 1499 1501 1502 1501 1501 1502 1503 1504 1504 1503 1504 1505 1506 1506 1507 1507 1508 1510 1510 1511 1511 1512 1511 1513 1516 1516 1517 1516 1511 1511 1511 1508 1506 1506 1505 1506 1506 1505 1505 1505 1504 1502 1501 1500 1499 1499 1499 1497 1496 1495 1495 1495 1495
1515 1514 1514 1514 1514 1515 1515 1514 1515 1515 1515 1515 1514 1514 1515 1515 1514 1512 1512 1513 1512 1512 1512 1510 1508 1507 1507 1508 1507 1506 1505 1503 1501 1499 1497 1498 1500 1500 1500 1500 1501 1501 1502 1501 1502 1503 1504 1505 1505 1506 1506 1508 1509 1509 1510 1510 1510 1510 1513 1515 1513 1513 1510 1507 1507 1506 1506 1505 1504 1505 1505 1505 1505 1504 1504 1503 1500 1500 1499 1496 1497 1496 1494 1494 1494 1493 1493 1493
1514 1514 1514 1514 1514 1514 1515 1514 1515 1515 1515 1515 1515 1514 1514 1514 1513 1512 1512 1512 1511 1511 1511 1510 1508 1508 1508 1507 1507 1506 1504 1503 1500 1496 1496 1497 1498 1499 1499 1499 1499 1500 1499 1500 1500 1502 1503 1504 1504 1505 1506 1507 1508 1509 1509 1508 1508 1508 1512 1513 1510 1509 1508 1506 1505 1505 1505 1504 1504 1505 1504 1504 1504 1503 1504 1502 1498 1497 1495 1493 1495 1494 1491 1491 1492 1492 1492 1491
1514 1513 1513 1514 1514 1514 1514 1515 1515 1515 1515 1515 1514 1513 1513 1513 1512 1512 1511 1511 1511 1511 1510 1509 1509 1508 1507 1507 1506 1505 1503 1501 1498 1495 1495 1496 1497 1498 1498 1497 1497 1497 1498 1499 1500 1501 1502 1503 1504 1505 1506 1507 1508 1508 1508 1507 1507 1508 1509 1510 1508 1508 1507 1504 1504 1504 1504 1504 1504 1504 1504 1504 1502 1502 1501 1500 1499 1491 1486 1489 1491 1491 1489 1489 1490 1491 1490 1489
1513 1513 1513 1513 1513 1514 1514 1514 1514 1514 1514 1514 1514 1513 1512 1512 1511 1511 1510 1510 1510 1510 1509 1509 1509 1507 1506 1507 1506 1505 1504 1501 1496 1495 1496 1497 1497 1497 1497 1496 1496 1496 1497 1498 1499 1500 1501 1503 1504 1505 1505 1506 1507 1507 1506 1506 1506 1507 1507 1507 1507 1508 1506 1503 1503 1503 1503 1503 1503 1504 1504 1502 1500 1501 1498 1499 1498 1485 1480 1487 1488 1487 1487 1487 1488 1487 1487 1486
1512 1512 1512 1513 1513 1513 1513 1514 1514 1514 1514 1513 1513 1512 1511 1511 1511 1511 1510 1510 1510 1509 1508 1508 1508 1506 1505 1506 1505 1505 1505 1501 1496 1497 1497 1497 1497 1496 1496 1495 1495 1495 1496 1497 1498 1499 1501 1502 1503 1504 1504 1505 1506 1505 1504 1505 1506 1507 1506 1506 1506 1506 1505 1503 1503 1503 1502 1503 1502 1502 1501 1500 1500 1498 1495 1494 1488 1478 1479 1486 1485 1484 1485 1484 1484 1484 1483 1483
1511 1511 1511 1512 1512 1512 1513 1513 1513 1513 1513 1513 1512 1511 1511 1511 1510 1510 1510 1510 1510 1510 1508 1507 1507 1506 1505 1505 1505 1504 1504 1499 1496 1498 1497 1497 1497 1496 1495 1495 1494 1495 1495 1496 1497 1499 1500 1501 1502 1503 1503 1504 1504 1503 1504 1504 1506 1507 1506 1505 1504 1504 1503 1502 1502 1502 1502 1502 1501 1501 1500 1500 1499 1496 1494 1486 1477 1476 1480 1482 1482 1481 1481 1481 1480 1480 1480 1479
1510 1510 1510 1510 1510 1511 1511 1512 1512 1512 1512 1512 1511 1510 1510 1510 1510 1509 1509 1509 1509 1510 1509 1507 1507 1505 1505 1505 1505 1504 1502 1498 1496 1497 1497 1497 1496 1495 1494 1494 1494 1494 1495 1496 1497 1498 1499 1500 1501 1501 1502 1503 1503 1503 1504 1504 1506 1507 1505 1504 1503 1503 1502 1501 1501 1500 1501 1500 1499 1500 1498 1497 1497 1496 1491 1476 1470 1476 1478 1478 1478 1477 1476 1477 1476 1476 1477 1476
1509 1509 1509 1509 1509 1510 1510 1511 1511 1511 1511 1511 1510 1509 1509 1508 1509 1508 1509 1509 1508 1509 1508 1507 1506 1505 1505 1505 1505 1505 1500 1497 1497 1496 1496 1496 1495 1494 1494 1493 1494 1494 1494 1495 1496 1497 1498 1499 1500 1500 1501 1502 1502 1502 1503 1505 1505 1504 1504 1503 1502 1502 1501 1501 1500 1499 1499 1498 1499 1498 1496 1495 1494 1496 1485 1467 1469 1474 1474 1475 1474 1474 1473 1473 1474 1474 1474 1473
1508 1508 1509 1509 1508 1509 1509 1510 1510 1510 1510 1510 1509 1509 1508 1508 1508 1508 1508 1508 1507 1507 1506 1506 1506 1506 1505 1504 1506 1504 1498 1497 1497 1496 1496 1495 1495 1494 1493 1493 1493 1493 1494 1495 1496 1497 1497 1498 1499 1500 1500 1500 1501 1502 1503 1504 1504 1503 1503 1502 1501 1501 1500 1500 1498 1498 1498 1496 1497 1495 1494 1492 1493 1497 1480 1463 1469 1472 1471 1474 1472 1472 1472 1471 1472 1471 1471 1471
1508 1508 1508 1508 1508 1508 1508 1508 1508 1509 1509 1509 1508 1507 1507 1507 1507 1507 1507 1507 1506 1506 1505 1505 1505 1505 1505 1504 1505 1502 1496 1497 1497 1496 1496 1494 1494 1493 1493 1493 1493 1493 1494 1494 1495 1496 1497 1498 1499 1499 1499 1500 1501 1503 1503 1503 1503 1503 1502 1501 1500 1499 1498 1498 1496 1496 1496 1496 1495 1495 1494 1490 1493 1494 1474 1462 1469 1471 1470 1470 1470 1471 1469 1468 1469 1468 1469 1468
1507 1507 1507 1507 1507 1507 1507 1507 1507 1508 1507 1507 1507 1506 1507 1506 1506 1506 1505 1505 1505 1505 1504 1504 1504 1504 1504 1503 1502 1498 1496 1496 1496 1495 1495 1494 1494 1493 1493 1492 1492 1493 1494 1495 1495 1495 1496 1497 1498 1499 1499 1500 1501 1503 1502 1503 1503 1502 1502 1501 1499 1498 1497 1495 1495 1494 1495 1495 1493 1496 1492 1483 1486 1481 1464 1464 1471 1470 1469 1467 1466 1467 1466 1466 1466 1466 1466 1465
1506 1506 1506 1506 1506 1506 1506 1506 1506 1506 1506 1506 1506 1506 1506 1505 1505 1505 1504 1504 1504 1505 1504 1503 1503 1503 1503 1501 1498 1497 1496 1496 1495 1495 1494 1494 1494 1493 1492 1492 1492 1492 1493 1493 1493 1494 1496 1496 1498 1498 1499 1500 1501 1502 1502 1503 1502 1501 1502 1502 1500 1500 1496 1493 1495 1494 1495 1495 1492 1497 1490 1471 1473 1472 1464 1469 1470 1468 1468 1465 1465 1464 1463 1463 1463 1463 1462 1462
1505 1505 1505 1505 1505 1505 1505 1505 1505 1505 1505 1505 1505 1505 1505 1505 1504 1504 1504 1503 1503 1504 1504 1503 1503 1503 1503 1499 1496 1496 1496 1495 1495 1494 1494 1494 1493 1492 1491 1491 1491 1491 1491 1492 1493 1494 1495 1497 1498 1499 1499 1500 1501 1502 1503 1503 1502 1502 1502 1503 1506 1504 1496 1492 1496 1494 1493 1494 1492 1497 1491 1469 1468 1470 1466 1469 1468 1468 1467 1463 1463 1462 1461 1461 1460 1461 1458 1458
1503 1504 1504 1504 1504 1504 1504 1504 1504 1504 1505 1504 1504 1504 1504 1504 1503 1503 1503 1503 1503 1503 1504 1503 1502 1502 1501 1497 1495 1495 1494 1494 1494 1494 1493 1493 1492 1491 1490 1489 1490 1490 1490 1491 1492 1494 1496 1497 1498 1499 1500 1500 1501 1502 1503 1503 1503 1504 1502 1502 1508 1508 1497 1492 1495 1496 1493 1493 1493 1495 1489 1473 1471 1469 1465 1467 1466 1467 1465 1462 1461 1459 1458 1458 1457 1457 1454 1453
1502 1502 1502 1503 1503 1503 1503 1503 1503 1503 1503 1503 1503 1503 1503 1503 1502 1502 1502 1502 1502 1502 1502 1503 1502 1502 1500 1496 1494 1494 1493 1493 1493 1493 1492 1491 1490 1489 1488 1488 1489 1489 1490 1492 1493 1495 1496 1497 1498 1499 1500 1500 1502 1503 1503 1505 1504 1506 1506 1502 1504 1505 1502 1495 1493 1496 1495 1493 1494 1494 1487 1474 1471 1468 1464 1466 1466 1465 1464 1460 1458 1456 1454 1453 1452 1451 1450 1449
1500 1500 1501 1501 1501 1502 1502 1502 1502 1502 1502 1502 1502 1502 1502 1501 1501 1501 1501 1501 1501 1501 1501 1501 1501 1501 1498 1494 1493 1493 1492 1492 1492 1492 1491 1490 1489 1488 1488 1488 1489 1490 1491 1493 1494 1496 1496 1497 1498 1499 1500 1502 1504 1503 1506 1508 1503 1505 1508 1506 1504 1505 1505 1498 1492 1494 1496 1494 1493 1494 1490 1475 1469 1469 1464 1464 1465 1465 1462 1457 1455 1453 1450 1449 1448 1447 1445 1444
1498 1499 1499 1499 1500 1501 1501 1501 1501 1501 1501 1501 1501 1500 1500 1500 1500 1500 1500 1500 1500 1500 1499 1499 1500 1501 1496 1492 1492 1492 1491 1492 1491 1491 1490 1490 1489 1489 1489 1489 1490 1491 1492 1494 1495 1496 1497 1497 1498 1499 1501 1503 1503 1503 1506 1506 1501 1501 1505 1504 1504 1505 1506 1502 1495 1494 1494 1494 1492 1493 1490 1474 1467 1470 1464 1460 1463 1463 1458 1454 1453 1450 1447 1445 1444 1442 1441 1440
1497 1497 1497 1498 1498 1499 1499 1500 1500 1500 1500 1500 1500 1499 1499 1499 1499 1498 1498 1498 1498 1498 1497 1496 1497 1498 1495 1491 1492 1492 1491 1491 1491 1490 1490 1490 1490 1490 1490 1490 1491 1492 1493 1494 1495 1496 1497 1497 1499 1499 1499 1499 1500 1500 1500 1501 1500 1501 1503 1504 1504 1504 1503 1501 1497 1495 1496 1495 1491 1491 1488 1475 1466 1467 1464 1458 1459 1460 1454 1450 1450 1447 1445 1443 1441 1439 1438 1437
1495 1495 1495 1496 1496 1497 1498 1498 1498 1498 1498 1498 1498 1498 1498 1498 1498 1497 1496 1496 1495 1495 1495 1494 1494 1494 1493 1492 1492 1491 1491 1491 1491 1491 1491 1491 1491 1491 1491 1492 1492 1493 1494 1495 1496 1496 1497 1497 1497 1496 1495 1497 1500 1501 1501 1503 1505 1504 1505 1506 1506 1506 1502 1498 1495 1496 1498 1493 1486 1487 1487 1478 1467 1462 1460 1456 1456 1456 1450 1447 1446 1443 1442 1440 1438 1436 1435 1435
1494 1493 1494 1494 1495 1496 1496 1496 1497 1497 1497 1497 1497 1497 1497 1497 1497 1496 1495 1494 1493 1493 1493 1493 1493 1492 1492 1492 1491 1491 1491 1490 1490 1490 1490 1491 1492 1491 1492 1492 1493 1494 1496 1497 1496 1497 1497 1496 1495 1495 1498 1501 1503 1505 1505 1505 1505 1504 1505 1505 1505 1508 1502 1495 1496 1497 1498 1494 1485 1485 1486 1475 1465 1458 1453 1451 1452 1449 1445 1445 1442 1439 1439 1437 1435 1434 1433 1432
1493 1492 1493 1493 1494 1494 1495 1495 1495 1495 1495 1496 1496 1496 1496 1496 1496 1496 1495 1494 1492 1491 1491 1491 1491 1491 1491 1491 1491 1491 1491 1490 1489 1489 1490 1490 1490 1491 1491 1492 1493 1494 1497 1497 1496 1498 1498 1495 1495 1499 1504 1505 1506 1507 1505 1504 1505 1504 1506 1506 1503 1505 1501 1494 1497 1498 1497 1494 1484 1485 1486 1472 1459 1454 1448 1445 1446 1443 1441 1441 1439 1437 1436 1434 1433 1432 1431 1430
1491 1491 1492 1492 1493 1493 1493 1493 1493 1493 1494 1494 1494 1495 1495 1495 1495 1495 1495 1494 1491 1489 1489 1489 1489 1489 1490 1490 1490 1491 1490 1490 1489 1488 1489 1489 1490 1491 1490 1492 1494 1495 1497 1496 1495 1497 1497 1495 1499 1504 1505 1504 1505 1507 1506 1504 1505 1505 1505 1504 1501 1503 1502 1494 1494 1497 1496 1494 1488 1487 1486 1470 1456 1450 1443 1439 1440 1439 1438 1437 1436 1436 1434 1431 1431 1431 1430 1429
1490 1491 1491 1491 1491 1492 1492 1492 1492 1492 1492 1492 1493 1493 1494 1495 1495 1495 1495 1493 1490 1488 1488 1488 1488 1488 1489 1490 1490 1490 1490 1490 1489 1489 1489 1489 1490 1490 1490 1492 1495 1495 1496 1496 1496 1495 1495 1499 1504 1505 1506 1505 1503 1505 1505 1502 1502 1505 1504 1501 1498 1499 1502 1498 1497 1497 1493 1494 1494 1486 1476 1462 1451 1449 1442 1437 1439 1437 1436 1436 1433 1432 1432 1429 1429 1429 1429 1429
1489 1490 1490 1490 1490 1490 1491 1491 1491 1491 1491 1491 1491 1492 1494 1494 1495 1495 1495 1494 1491 1487 1487 1487 1487 1488 1488 1489 1489 1490 1490 1489 1489 1489 1489 1489 1490 1491 1491 1493 1493 1494 1496 1498 1499 1495 1495 1501 1504 1503 1505 1505 1502 1501 1502 1501 1500 1501 1501 1501 1499 1499 1501 1500 1499 1497 1489 1488 1492 1489 1481 1465 1451 1450 1444 1438 1438 1434 1432 1434 1431 1429 1430 1429 1428 1428 1429 1428
1488 1489 1489 1489 1489 1490 1490 1490 1490 1490 1490 1491 1491 1492 1493 1493 1495 1495 1495 1499 1494 1487 1487 1487 1487 1487 1487 1488 1489 1489 1489 1489 1488 1489 1489 1489 1490 1490 1492 1493 1494 1494 1497 1499 1498 1497 1499 1503 1505 1503 1503 1502 1501 1500 1501 1503 1501 1498 1501 1505 1504 1502 1502 1502 1499 1496 1490 1488 1491 1495 1493 1479 1460 1451 1445 1441 1440 1434 1430 1432 1431 1429 1429 1428 1428 1427 1427 1427
1487 1488 1488 1488 1489 1489 1489 1489 1490 1490 1490 1491 1490 1492 1492 1493 1495 1494 1496 1501 1494 1486 1486 1487 1487 1487 1487 1488 1488 1489 1489 1488 1487 1488 1488 1489 1489 1490 1491 1493 1494 1493 1496 1497 1495 1496 1501 1503 1505 1504 1501 1501 1499 1497 1500 1503 1499 1498 1504 1507 1504 1502 1502 1502 1500 1498 1498 1495 1493 1496 1496 1490 1474 1455 1445 1446 1443 1435 1431 1430 1428 1427 1427 1427 1427 1426 1426 1427
1487 1487 1487 1488 1488 1488 1489 1489 1489 1490 1490 1490 1491 1492 1492 1493 1495 1494 1498 1499 1490 1485 1486 1486 1487 1487 1487 1488 1488 1488 1488 1487 1488 1488 1488 1488 1489 1490 1490 1492 1492 1493 1496 1495 1492 1496 1500 1499 1500 1501 1500 1499 1497 1498 1502 1502 1499 1501 1508 1508 1504 1504 1503 1504 1502 1500 1504 1499 1489 1491 1495 1492 1476 1452 1445 1450 1444 1435 1431 1429 1428 1427 1426 1425 1425 1426 1426 1426
1486 1486 1486 1487 1487 1488 1488 1488 1489 1490 1490 1491 1491 1492 1492 1494 1494 1495 1501 1498 1487 1484 1485 1485 1487 1487 1487 1488 1488 1488 1488 1488 1488 1488 1488 1489 1489 1489 1490 1491 1492 1493 1495 1495 1492 1494 1498 1497 1498 1499 1498 1497 1499 1503 1505 1502 1499 1502 1508 1507 1505 1507 1505 1505 1503 1499 1504 1500 1487 1490 1497 1492 1472 1448 1442 1446 1442 1436 1431 1429 1429 1427 1425 1425 1424 1424 1425 1425
1486 1485 1486 1486 1487 1488 1487 1488 1489 1489 1490 1491 1491 1492 1493 1494 1495 1499 1503 1494 1484 1485 1484 1484 1486 1486 1486 1487 1487 1488 1488 1488 1488 1489 1489 1489 1489 1490 1490 1491 1492 1493 1495 1496 1494 1496 1499 1499 1500 1500 1497 1498 1502 1505 1505 1502 1501 1503 1506 1503 1502 1505 1504 1505 1506 1503 1502 1495 1489 1496 1501 1496 1477 1448 1436 1437 1436 1435 1432 1429 1429 1426 1424 1423 1422 1423 1422 1422
1484 1485 1486 1486 1486 1487 1487 1488 1489 1489 1490 1490 1491 1492 1493 1495 1498 1502 1499 1488 1484 1485 1484 1484 1487 1486 1486 1487 1487 1487 1488 1488 1488 1489 1489 1490 1491 1490 1491 1491 1492 1494 1495 1494 1494 1497 1500 1499 1499 1499 1498 1499 1501 1503 1504 1504 1503 1503 1502 1499 1496 1498 1499 1501 1504 1504 1499 1489 1491 1502 1504 1502 1484 1450 1434 1435 1435 1436 1435 1432 1430 1426 1423 1421 1419 1420 1420 1420
1483 1484 1485 1485 1486 1486 1486 1487 1488 1489 1490 1490 1491 1492 1492 1498 1500 1496 1490 1484 1482 1484 1484 1485 1487 1486 1487 1487 1486 1487 1488 1488 1488 1489 1490 1491 1491 1489 1489 1488 1489 1491 1492 1492 1491 1490 1493 1496 1498 1498 1498 1499 1497 1498 1503 1504 1504 1502 1500 1499 1498 1498 1499 1497 1497 1503 1500 1490 1495 1505 1502 1498 1480 1450 1436 1435 1432 1433 1434 1432 1430 1427 1424 1420 1419 1418 1417 1419
1481 1482 1484 1484 1485 1485 1486 1486 1487 1488 1489 1490 1492 1491 1494 1499 1496 1491 1488 1483 1481 1484 1485 1486 1487 1488 1487 1485 1485 1487 1488 1487 1488 1489 1490 1491 1490 1488 1488 1488 1488 1486 1487 1493 1492 1484 1486 1493 1498 1497 1495 1498 1496 1494 1495 1497 1502 1501 1498 1498 1497 1500 1504 1499 1500 1506 1500 1491 1498 1507 1502 1490 1471 1445 1432 1431 1429 1429 1430 1428 1427 1426 1424 1421 1420 1418 1416 1417
1480 1481 1482 1483 1484 1485 1485 1486 1487 1487 1489 1491 1491 1492 1497 1497 1491 1489 1487 1482 1484 1487 1487 1487 1488 1488 1488 1487 1487 1488 1487 1487 1489 1489 1488 1490 1489 1486 1485 1487 1488 1485 1487 1493 1490 1487 1484 1483 1491 1496 1494 1497 1498 1496 1494 1494 1499 1502 1502 1501 1498 1498 1499 1495 1495 1493 1490 1492 1499 1504 1495 1478 1459 1437 1426 1427 1428 1427 1427 1426 1425 1423 1423 1422 1419 1418 1416 1416
1478 1479 1480 1482 1483 1483 1484 1485 1486 1487 1488 1490 1491 1494 1496 1491 1487 1486 1482 1480 1485 1487 1488 1491 1490 1488 1489 1490 1490 1490 1487 1486 1489 1490 1488 1488 1487 1484 1482 1482 1485 1485 1486 1488 1487 1491 1489 1482 1492 1500 1497 1498 1498 1498 1499 1494 1496 1502 1505 1502 1498 1496 1494 1498 1507 1506 1504 1503 1498 1495 1484 1467 1452 1433 1424 1426 1424 1423 1424 1423 1424 1422 1421 1421 1419 1417 1416 1415
1477 1478 1479 1480 1481 1482 1483 1484 1485 1487 1487 1489 1492 1494 1491 1483 1482 1483 1479 1478 1482 1484 1487 1491 1490 1489 1488 1489 1490 1491 1489 1487 1489 1488 1488 1489 1486 1484 1481 1478 1481 1480 1480 1482 1483 1488 1487 1485 1497 1501 1497 1500 1498 1496 1499 1494 1492 1500 1502 1497 1499 1502 1496 1498 1511 1521 1521 1506 1490 1488 1477 1461 1453 1434 1422 1425 1421 1419 1421 1420 1421 1420 1418 1419 1417 1416 1416 1415
1476 1477 1477 1478 1479 1480 1482 1483 1485 1486 1487 1489 1490 1489 1487 1480 1478 1480 1479 1479 1481 1482 1484 1484 1484 1485 1485 1485 1488 1490 1489 1488 1490 1488 1487 1488 1482 1479 1480 1476 1476 1477 1475 1477 1479 1482 1483 1484 1495 1501 1496 1498 1499 1497 1499 1498 1495 1497 1498 1497 1500 1503 1500 1497 1500 1507 1512 1502 1488 1487 1477 1465 1460 1441 1422 1423 1422 1417 1418 1418 1420 1419 1416 1416 1416 1415 1416 1415
1475 1476 1476 1476 1477 1479 1480 1482 1484 1485 1487 1490 1489 1487 1485 1480 1477 1478 1479 1479 1480 1481 1481 1478 1478 1483 1484 1482 1483 1489 1489 1485 1488 1487 1484 1484 1477 1472 1476 1473 1473 1478 1476 1476 1478 1481 1483 1481 1491 1503 1499 1497 1501 1498 1496 1498 1500 1497 1497 1500 1500 1495 1495 1499 1499 1494 1498 1498 1489 1485 1484 1475 1464 1445 1426 1422 1421 1418 1417 1418 1418 1417 1416 1415 1414 1414 1414 1414
1474 1474 1474 1475 1476 1477 1479 1481 1483 1485 1487 1490 1488 1485 1483 1480 1477 1478 1478 1478 1478 1478 1477 1476 1477 1482 1484 1481 1480 1485 1486 1482 1484 1484 1478 1478 1474 1469 1472 1471 1472 1478 1478 1478 1479 1480 1483 1480 1485 1499 1502 1499 1500 1497 1492 1494 1501 1502 1499 1502 1502 1496 1493 1495 1499 1494 1490 1494 1490 1482 1477 1463 1447 1438 1428 1420 1418 1417 1416 1417 1416 1415 1415 1414 1413 1413 1413 1413
1472 1473 1472 1473 1474 1475 1478 1480 1482 1485 1486 1487 1486 1483 1482 1479 1476 1477 1477 1477 1477 1475 1475 1476 1478 1479 1480 1483 1482 1481 1483 1482 1483 1482 1478 1477 1473 1467 1470 1470 1472 1477 1478 1480 1480 1480 1484 1482 1481 1495 1503 1497 1491 1488 1485 1484 1491 1497 1497 1499 1499 1498 1498 1496 1498 1499 1490 1488 1491 1487 1475 1449 1428 1427 1425 1416 1413 1414 1415 1416 1415 1414 1414 1412 1413 1413 1413 1413
1471 1472 1470 1471 1472 1474 1476 1478 1481 1483 1483 1484 1483 1481 1481 1477 1474 1476 1476 1477 1477 1476 1475 1476 1476 1476 1476 1479 1479 1479 1481 1482 1483 1482 1479 1478 1473 1467 1469 1471 1472 1476 1477 1480 1480 1479 1482 1482 1482 1490 1493 1486 1480 1485 1488 1485 1485 1487 1487 1489 1488 1490 1495 1491 1491 1500 1499 1490 1487 1490 1479 1443 1417 1419 1418 1411 1411 1411 1415 1416 1414 1413 1413 1412 1413 1413 1413 1412
1470 1469 1468 1469 1471 1472 1474 1476 1479 1481 1479 1477 1477 1477 1476 1475 1474 1475 1475 1476 1477 1476 1477 1476 1476 1476 1475 1474 1476 1479 1479 1479 1483 1483 1477 1476 1472 1467 1469 1472 1472 1473 1474 1477 1479 1478 1479 1483 1483 1481 1480 1481 1483 1489 1492 1489 1489 1489 1486 1486 1486 1486 1486 1481 1480 1489 1497 1498 1495 1499 1484 1435 1408 1417 1416 1409 1411 1411 1414 1417 1414 1412 1411 1412 1413 1412 1412 1411
1467 1467 1467 1468 1469 1470 1473 1475 1478 1479 1476 1473 1474 1474 1474 1474 1475 1475 1475 1476 1476 1476 1476 1475 1475 1474 1472 1473 1476 1478 1477 1475 1478 1477 1473 1474 1472 1468 1470 1471 1471 1473 1473 1474 1476 1477 1478 1480 1481 1477 1475 1480 1488 1493 1493 1493 1492 1488 1485 1488 1488 1484 1481 1479 1482 1485 1488 1490 1488 1496 1485 1434 1406 1418 1419 1412 1414 1413 1412 1415 1413 1412 1409 1409 1411 1410 1411 1410
1466 1466 1467 1467 1468 1469 1469 1469 1470 1472 1472 1472 1473 1472 1473 1474 1473 1473 1474 1473 1473 1475 1474 1473 1472 1470 1471 1475 1475 1475 1475 1472 1471 1471 1472 1473 1470 1467 1470 1470 1470 1471 1470 1470 1472 1473 1475 1477 1479 1480 1476 1474 1478 1481 1483 1488 1490 1484 1482 1487 1485 1482 1483 1484 1488 1490 1485 1477 1471 1478 1473 1435 1411 1416 1417 1415 1417 1413 1411 1411 1410 1411 1407 1406 1408 1408 1408 1408
1465 1466 1466 1466 1466 1467 1466 1463 1463 1466 1468 1470 1471 1471 1471 1471 1470 1469 1470 1470 1471 1472 1470 1470 1470 1469 1473 1476 1475 1476 1475 1471 1469 1470 1473 1473 1470 1469 1470 1470 1470 1471 1469 1471 1471 1470 1472 1475 1475 1475 1475 1471 1465 1462 1463 1471 1480 1481 1481 1484 1482 1481 1482 1479 1483 1487 1480 1473 1472 1469 1452 1428 1417 1416 1411 1410 1413 1412 1410 1407 1406 1408 1406 1404 1405 1404 1404 1404
1462 1462 1465 1467 1467 1466 1463 1462 1462 1463 1464 1467 1469 1469 1468 1467 1466 1467 1468 1468 1468 1469 1469 1469 1469 1470 1473 1475 1474 1475 1475 1475 1474 1474 1473 1471 1468 1469 1471 1470 1470 1472 1470 1471 1472 1471 1473 1475 1471 1467 1466 1462 1455 1455 1464 1468 1468 1469 1472 1476 1480 1481 1479 1478 1481 1479 1471 1470 1471 1462 1444 1430 1425 1421 1410 1406 1407 1407 1406 1403 1401 1403 1403 1403 1402 1401 1401 1401
1458 1456 1458 1462 1463 1463 1463 1462 1462 1461 1461 1462 1463 1462 1461 1462 1463 1466 1467 1467 1467 1468 1469 1468 1468 1468 1469 1472 1472 1472 1475 1477 1477 1475 1473 1469 1468 1469 1471 1471 1471 1471 1471 1472 1471 1472 1472 1470 1468 1466 1462 1458 1454 1457 1467 1468 1461 1460 1463 1467 1474 1480 1479 1478 1472 1463 1462 1466 1458 1446 1442 1438 1430 1420 1411 1408 1407 1403 1402 1400 1397 1397 1399 1400 1400 1399 1398 1396
1454 1451 1450 1452 1452 1454 1457 1456 1455 1458 1459 1458 1458 1458 1457 1459 1460 1461 1463 1466 1467 1467 1466 1466 1465 1463 1462 1464 1464 1466 1473 1476 1475 1473 1469 1467 1469 1468 1467 1470 1471 1470 1471 1473 1471 1472 1471 1465 1464 1467 1462 1458 1458 1462 1466 1466 1462 1462 1461 1460 1467 1476 1474 1468 1462 1457 1458 1455 1439 1429 1435 1438 1428 1414 1407 1406 1405 1401 1398 1397 1395 1394 1395 1396 1397 1396 1394 1391
1450 1448 1447 1448 1445 1445 1447 1446 1448 1454 1456 1456 1456 1455 1453 1454 1455 1455 1458 1463 1464 1464 1464 1460 1456 1457 1460 1461 1459 1461 1464 1463 1461 1463 1464 1465 1467 1467 1464 1465 1468 1470 1471 1471 1472 1473 1469 1464 1466 1470 1464 1457 1458 1461 1465 1466 1464 1462 1462 1461 1461 1464 1463 1461 1459 1455 1452 1444 1432 1428 1434 1431 1416 1405 1402 1400 1397 1397 1397 1395 1392 1392 1392 1393 1394 1393 1390 1387
1446 1445 1444 1445 1443 1443 1444 1444 1446 1450 1454 1456 1454 1449 1449 1449 1449 1450 1454 1454 1453 1458 1462 1455 1448 1454 1460 1460 1459 1455 1451 1448 1447 1450 1457 1460 1462 1464 1461 1457 1461 1470 1471 1470 1473 1473 1468 1467 1471 1473 1466 1458 1457 1461 1466 1468 1467 1463 1463 1461 1456 1455 1460 1463 1458 1452 1450 1445 1435 1433 1439 1430 1406 1395 1397 1395 1392 1395 1395 1391 1390 1390 1390 1390 1390 1389 1386 1384
1441 1441 1442 1442 1441 1441 1442 1443 1446 1448 1450 1452 1448 1443 1444 1444 1441 1444 1447 1445 1442 1447 1451 1447 1446 1453 1459 1460 1459 1450 1442 1444 1445 1444 1449 1452 1452 1454 1453 1451 1455 1463 1468 1470 1470 1470 1470 1470 1471 1473 1468 1458 1458 1465 1468 1468 1470 1472 1466 1454 1448 1451 1453 1449 1445 1444 1443 1437 1433 1437 1440 1424 1396 1385 1390 1393 1393 1393 1389 1387 1389 1387 1386 1387 1386 1384 1383 1380
1438 1439 1440 1441 1438 1437 1438 1441 1443 1443 1440 1439 1437 1435 1435 1435 1436 1441 1443 1440 1437 1438 1441 1442 1444 1450 1455 1456 1451 1440 1437 1443 1445 1445 1448 1448 1448 1448 1449 1450 1452 1454 1461 1467 1467 1469 1470 1466 1466 1471 1466 1457 1461 1469 1470 1468 1464 1459 1450 1437 1433 1438 1438 1434 1435 1436 1430 1426 1428 1428 1417 1400 1388 1386 1390 1390 1389 1388 1386 1387 1387 1384 1382 1382 1382 1380 1379 1376